Gillette, WY

1:39 AM MDT on September 22, 2017 (GMT -0600)
Gillette-Campbell County

Weather History for KGCC - May, 2012

Change the Weather History Date:

Sunday, May 6, 2012

  Actual Average Record
Temperature  
Mean Temperature 43 °F 50 °F  
Max Temperature 58 °F 63 °F 87 °F (1966)
Min Temperature 28 °F 37 °F 24 °F (1929)
Degree Days  
Heating Degree Days 22 15  
Month to date heating degree days 92 97  
Since 1 July heating degree days 6366 7113  
Cooling Degree Days 0 0  
Month to date cooling degree days 0 0  
Year to date cooling degree days 2 0  
Moisture  
Dew Point 30 °F    
Average Humidity 65    
Maximum Humidity 100    
Minimum Humidity 30    
Precipitation  
Precipitation 0.00 in 0.06 in 1.28 in (1964)
Month to date precipitation 0.28 0.40  
Year to date precipitation 4.21 3.61  
Sea Level Pressure  
Sea Level Pressure 30.23 in    
Wind  
Wind Speed 11 mph (WNW)    
Max Wind Speed 25 mph    
Max Gust Speed 33 mph    
Visibility 10 miles    
Events      
T = Trace of Precipitation, MM = Missing Value Source: NWS Daily Summary

Daily Weather History Graph

Daily Weather History Graph

Search for Another Location

Airport or City:

Trip Planner

Search our weather history database for the weather conditions in past years. The results will help you decide how hot, cold, wet, or windy it might be!

Date:

Astronomy

May. 06, 2012 Rise Set
Actual Time 5:45 AM MDT 8:12 PM MDT
Civil Twilight 5:12 AM MDT 8:45 PM MDT
Nautical Twilight 4:32 AM MDT 9:26 PM MDT
Astronomical Twilight 3:46 AM MDT 10:12 PM MDT
Moon 9:24 PM MDT (5/6) 5:56 AM MDT (5/6)
Length of Visible Light 15h 32m
Length of Day
14h 27m
Waxing Gibbous, 99% of the Moon is Illuminated
May 6
Waxing Gibbous
May 12
Last Quarter
May 20
New
May 28
First Quarter
Jun 4
Full

Hourly Weather History & Observations

Time (MDT) Temp. Windchill Dew Point Humidity Pressure Visibility Wind Dir Wind Speed Gust Speed Precip Events Conditions
12:53 AM 33.1 °F 24.4 °F 32.0 °F 96% 30.19 in 10.0 mi West 11.5 mph - N/A   Clear
1:12 AM 33.8 °F 23.9 °F 33.8 °F 100% 30.17 in 8.0 mi West 15.0 mph 20.7 mph N/A   Scattered Clouds
1:23 AM 33.8 °F 23.9 °F 33.8 °F 100% 30.16 in 7.0 mi West 15.0 mph - N/A   Mostly Cloudy
1:39 AM 33.8 °F 24.8 °F 33.8 °F 100% 30.16 in 10.0 mi West 12.7 mph - N/A   Scattered Clouds
1:53 AM 33.8 °F 23.9 °F 33.8 °F 100% 30.16 in 10.0 mi West 15.0 mph - N/A   Clear
2:53 AM 35.1 °F 25.9 °F 33.1 °F 92% 30.18 in 10.0 mi WSW 13.8 mph - N/A   Clear
3:53 AM 34.0 °F 27.2 °F 30.9 °F 89% 30.17 in 10.0 mi WSW 8.1 mph - N/A   Clear
4:53 AM 33.1 °F 25.5 °F 30.0 °F 89% 30.21 in 10.0 mi South 9.2 mph - N/A   Clear
5:53 AM 32.0 °F 26.4 °F 28.9 °F 88% 30.25 in 10.0 mi SSE 5.8 mph - N/A   Clear
6:53 AM 35.1 °F 31.0 °F 32.0 °F 89% 30.27 in 10.0 mi South 4.6 mph - N/A   Clear
7:53 AM 41.0 °F 38.0 °F 33.1 °F 73% 30.27 in 10.0 mi SW 4.6 mph - N/A   Clear
8:53 AM 45.0 °F 40.6 °F 33.1 °F 63% 30.27 in 10.0 mi West 8.1 mph - N/A   Clear
9:53 AM 48.0 °F - 30.0 °F 50% 30.27 in 10.0 mi NW 15.0 mph 21.9 mph N/A   Clear
10:53 AM 50.0 °F - 28.9 °F 44% 30.27 in 10.0 mi WNW 17.3 mph 23.0 mph N/A   Clear
11:53 AM 51.1 °F - 30.0 °F 44% 30.25 in 10.0 mi WNW 16.1 mph 23.0 mph N/A   Clear
12:53 PM 54.0 °F - 30.0 °F 40% 30.24 in 10.0 mi NW 12.7 mph 24.2 mph 0.01 in   Partly Cloudy
1:53 PM 53.1 °F - 27.0 °F 37% 30.23 in 10.0 mi Variable 6.9 mph 24.2 mph N/A   Scattered Clouds
2:53 PM 54.0 °F - 28.0 °F 37% 30.22 in 10.0 mi NW 15.0 mph 24.2 mph N/A   Scattered Clouds
3:53 PM 55.0 °F - 27.0 °F 34% 30.21 in 10.0 mi NW 17.3 mph 28.8 mph N/A   Mostly Cloudy
4:53 PM 57.0 °F - 26.1 °F 30% 30.21 in 10.0 mi NNW 20.7 mph 31.1 mph N/A   Clear
5:53 PM 52.0 °F - 25.0 °F 35% 30.23 in 10.0 mi NNW 21.9 mph 28.8 mph N/A   Scattered Clouds
6:53 PM 52.0 °F - 26.1 °F 37% 30.23 in 10.0 mi NW 16.1 mph 25.3 mph N/A   Clear
7:53 PM 48.0 °F - 28.0 °F 46% 30.25 in 10.0 mi NNW 9.2 mph - N/A   Clear
8:53 PM 39.9 °F 35.1 °F 28.9 °F 65% 30.29 in 10.0 mi NNW 6.9 mph - N/A   Clear
9:53 PM 41.0 °F 38.0 °F 28.0 °F 60% 30.30 in 10.0 mi NW 4.6 mph - N/A   Clear
10:53 PM 37.9 °F 32.7 °F 28.0 °F 68% 30.31 in 10.0 mi NW 6.9 mph - N/A   Clear
11:53 PM 30.9 °F - 27.0 °F 85% 30.34 in 10.0 mi Calm Calm - N/A   Clear